Weather History for PAWG - November, 2014

Change the Weather History Date:

Friday, November 7, 2014

  Actual Average Record
Temperature  
Mean Temperature 42 °F -  
Max Temperature 44 °F - - ()
Min Temperature 39 °F - - ()
Degree Days  
Heating Degree Days 24    
Moisture  
Dew Point 37 °F    
Average Humidity 78    
Maximum Humidity 87    
Minimum Humidity 66    
Precipitation  
Precipitation 0.12 in - - ()
Sea Level Pressure  
Sea Level Pressure 30.04 in    
Wind  
Wind Speed 10 mph (ESE)    
Max Wind Speed 20 mph    
Max Gust Speed 25 mph    
Visibility 10 miles    
Events      
T = Trace of Precipitation, MM = Missing Value Source: NWS Daily Summary

Daily Weather History Graph

Daily Weather History Graph

Search for Another Location

Airport or City:

Trip Planner

Search our weather history database for the weather conditions in past years. The results will help you decide how hot, cold, wet, or windy it might be!

Date:

Astronomy

Nov. 07, 2014 Rise Set
Actual Time 7:11 AM AKST 3:53 PM AKST
Civil Twilight 6:30 AM AKST 4:35 PM AKST
Nautical Twilight 5:44 AM AKST 5:20 PM AKST
Astronomical Twilight 5:00 AM AKST 6:04 PM AKST
Moon 4:47 PM AKST (11/7) 7:57 AM AKST (11/7)
Length of Visible Light 10h 05m
Length of Day
8h 42m
Full, 99% of the Moon is Illuminated
Nov 7
Full
Nov 14
Last Quarter
Nov 22
New
Nov 29
First Quarter
Dec 6
Full

Hourly Weather History & Observations

Time (AKST) Temp. Windchill Dew Point Humidity Pressure Visibility Wind Dir Wind Speed Gust Speed Precip Events Conditions
12:16 AM 41.0 °F 33.9 °F 35.6 °F 81% 30.03 in 10.0 mi ENE 12.7 mph - N/A   Mostly Cloudy
12:36 AM 41.0 °F 35.2 °F 35.6 °F 81% 30.04 in 10.0 mi East 9.2 mph - N/A   Overcast
12:56 AM 41.0 °F 33.9 °F 35.6 °F 81% 30.04 in 10.0 mi East 12.7 mph - N/A   Mostly Cloudy
1:16 AM 42.8 °F 36.2 °F 35.6 °F 76% 30.04 in 10.0 mi East 12.7 mph - N/A   Scattered Clouds
1:36 AM 42.8 °F 38.6 °F 35.6 °F 76% 30.05 in 10.0 mi East 6.9 mph - N/A   Partly Cloudy
1:56 AM 42.8 °F 36.2 °F 35.6 °F 76% 30.05 in 10.0 mi East 12.7 mph 19.6 mph N/A   Mostly Cloudy
2:16 AM 42.8 °F 36.2 °F 35.6 °F 76% 30.04 in 10.0 mi East 12.7 mph 17.3 mph 0.02 in   Overcast
2:36 AM 42.8 °F 36.2 °F 35.6 °F 76% 30.05 in 10.0 mi East 12.7 mph 19.6 mph 0.03 in   Overcast
2:56 AM 42.8 °F 38.0 °F 37.4 °F 81% 30.04 in 10.0 mi East 8.1 mph - 0.04 in   Overcast
3:16 AM 42.8 °F 36.2 °F 35.6 °F 76% 30.04 in 10.0 mi ESE 12.7 mph 18.4 mph N/A   Overcast
3:36 AM 42.8 °F 35.4 °F 35.6 °F 76% 30.03 in 10.0 mi East 15.0 mph - 0.01 in   Overcast
3:56 AM 42.8 °F 35.4 °F 35.6 °F 76% 30.02 in 10.0 mi East 15.0 mph 19.6 mph 0.01 in   Overcast
4:16 AM 42.8 °F 36.2 °F 33.8 °F 70% 30.02 in 10.0 mi ESE 12.7 mph - 0.01 in   Overcast
4:36 AM 42.8 °F 34.8 °F 35.6 °F 76% 30.01 in 10.0 mi ESE 17.3 mph 24.2 mph 0.02 in   Overcast
4:56 AM 42.8 °F 34.3 °F 33.8 °F 70% 30.01 in 10.0 mi SE 19.6 mph 24.2 mph 0.03 in   Overcast
5:16 AM 42.8 °F 35.8 °F 35.6 °F 76% 30.02 in 10.0 mi SE 13.8 mph 21.9 mph 0.02 in   Overcast
5:36 AM 42.8 °F 34.5 °F 33.8 °F 70% 30.02 in 10.0 mi SE 18.4 mph 25.3 mph 0.03 in   Overcast
5:56 AM 42.8 °F 35.1 °F 35.6 °F 76% 30.02 in 10.0 mi SE 16.1 mph 23.0 mph 0.03 in   Overcast
6:16 AM 42.8 °F 36.2 °F 33.8 °F 70% 30.03 in 10.0 mi SE 12.7 mph 23.0 mph 0.01 in   Overcast
6:36 AM 42.8 °F 36.2 °F 33.8 °F 70% 30.03 in 10.0 mi SE 12.7 mph 23.0 mph 0.01 in   Overcast
6:56 AM 42.8 °F 34.8 °F 33.8 °F 70% 30.03 in 10.0 mi SE 17.3 mph 25.3 mph 0.01 in   Overcast
7:16 AM 44.6 °F 38.8 °F 33.8 °F 66% 30.03 in 10.0 mi SE 11.5 mph 17.3 mph N/A   Overcast
7:36 AM 44.6 °F 39.7 °F 33.8 °F 66% 30.04 in 10.0 mi SE 9.2 mph 19.6 mph N/A   Overcast
7:56 AM 44.6 °F 40.7 °F 35.6 °F 71% 30.04 in 10.0 mi ESE 6.9 mph - N/A   Overcast
8:16 AM 42.8 °F 38.6 °F 35.6 °F 76% 30.05 in 10.0 mi East 6.9 mph - N/A   Overcast
8:36 AM 42.8 °F 38.6 °F 35.6 °F 76% 30.06 in 10.0 mi SE 6.9 mph - N/A   Overcast
8:56 AM 42.8 °F 38.6 °F 35.6 °F 76% 30.05 in 10.0 mi ENE 6.9 mph - N/A   Overcast
9:16 AM 44.6 °F 40.7 °F 37.4 °F 76% 30.05 in 10.0 mi East 6.9 mph - N/A   Overcast
9:36 AM 44.6 °F 38.8 °F 37.4 °F 76% 30.05 in 10.0 mi East 11.5 mph - N/A   Overcast
9:56 AM 42.8 °F 41.1 °F 35.6 °F 76% 30.06 in 10.0 mi ESE 3.5 mph - N/A   Overcast
10:16 AM 42.8 °F 37.5 °F 37.4 °F 81% 30.05 in 10.0 mi East 9.2 mph - N/A   Overcast
10:36 AM 44.6 °F 41.4 °F 37.4 °F 76% 30.05 in 10.0 mi East 5.8 mph - N/A   Overcast
10:56 AM 44.6 °F 39.7 °F 37.4 °F 76% 30.05 in 10.0 mi East 9.2 mph - N/A   Overcast
11:16 AM 44.6 °F 39.2 °F 37.4 °F 76% 30.04 in 10.0 mi East 10.4 mph - N/A   Overcast
11:36 AM 42.8 °F 37.5 °F 37.4 °F 81% 30.04 in 10.0 mi East 9.2 mph - N/A   Overcast
11:56 AM 42.8 °F 37.0 °F 37.4 °F 81% 30.04 in 10.0 mi East 10.4 mph - N/A   Overcast
12:16 PM 42.8 °F 37.5 °F 39.2 °F 87% 30.04 in 10.0 mi East 9.2 mph - N/A   Overcast
12:36 PM 42.8 °F 37.5 °F 39.2 °F 87% 30.04 in 10.0 mi East 9.2 mph - N/A   Overcast
12:56 PM 42.8 °F 38.6 °F 39.2 °F 87% 30.04 in 10.0 mi East 6.9 mph - N/A   Overcast
1:16 PM 42.8 °F 38.6 °F 37.4 °F 81% 30.04 in 10.0 mi ESE 6.9 mph - N/A   Overcast
1:36 PM 44.6 °F 40.2 °F 37.4 °F 76% 30.04 in 10.0 mi East 8.1 mph - N/A   Overcast
1:56 PM 44.6 °F 40.7 °F 39.2 °F 81% 30.04 in 10.0 mi East 6.9 mph - N/A   Overcast
2:16 PM 44.6 °F 39.7 °F 37.4 °F 76% 30.03 in 10.0 mi East 9.2 mph - N/A   Overcast
2:36 PM 44.6 °F 40.2 °F 37.4 °F 76% 30.04 in 10.0 mi East 8.1 mph - N/A   Overcast
2:56 PM 44.6 °F 40.7 °F 39.2 °F 81% 30.03 in 10.0 mi East 6.9 mph - N/A   Overcast
3:16 PM 44.6 °F 40.7 °F 39.2 °F 81% 30.04 in 10.0 mi East 6.9 mph - N/A   Overcast
3:36 PM 44.6 °F 39.7 °F 39.2 °F 81% 30.04 in 10.0 mi East 9.2 mph - N/A   Overcast
3:56 PM 44.6 °F 41.4 °F 39.2 °F 81% 30.04 in 10.0 mi South 5.8 mph - N/A   Overcast
4:16 PM 44.6 °F 40.7 °F 37.4 °F 76% 30.03 in 10.0 mi East 6.9 mph - N/A   Overcast
4:36 PM 44.6 °F 39.7 °F 37.4 °F 76% 30.03 in 10.0 mi East 9.2 mph - N/A   Overcast
4:56 PM 42.8 °F 38.6 °F 37.4 °F 81% 30.04 in 10.0 mi East 6.9 mph - N/A   Overcast
5:16 PM 44.6 °F 41.4 °F 37.4 °F 76% 30.03 in 10.0 mi East 5.8 mph - N/A   Overcast
5:36 PM 44.6 °F 42.2 °F 37.4 °F 76% 30.04 in 10.0 mi ESE 4.6 mph - N/A   Overcast
5:56 PM 42.8 °F - 37.4 °F 81% 30.04 in 10.0 mi Calm Calm - N/A   Overcast
6:16 PM 42.8 °F - 37.4 °F 81% 30.04 in 10.0 mi Calm Calm - N/A   Overcast
6:36 PM 41.0 °F - 35.6 °F 81% 30.04 in 10.0 mi Calm Calm - N/A   Overcast
6:56 PM 42.8 °F 39.3 °F 37.4 °F 81% 30.04 in 10.0 mi ESE 5.8 mph - N/A   Overcast
7:16 PM 42.8 °F 38.6 °F 37.4 °F 81% 30.04 in 10.0 mi ESE 6.9 mph - N/A   Overcast
7:36 PM 42.8 °F - 37.4 °F 81% 30.04 in 10.0 mi Calm Calm - N/A   Overcast
7:56 PM 41.0 °F 38.0 °F 35.6 °F 81% 30.05 in 10.0 mi NNW 4.6 mph - N/A   Overcast
8:16 PM 39.2 °F - 35.6 °F 87% 30.06 in 10.0 mi Calm Calm - N/A   Overcast
8:36 PM 39.2 °F - 35.6 °F 87% 30.07 in 10.0 mi Calm Calm - N/A   Overcast
8:56 PM 41.0 °F 39.0 °F 35.6 °F 81% 30.07 in 10.0 mi West 3.5 mph - N/A   Overcast
9:16 PM 41.0 °F - 35.6 °F 81% 30.08 in 10.0 mi Calm Calm - N/A   Overcast
9:36 PM 41.0 °F 37.1 °F 37.4 °F 87% 30.08 in 10.0 mi ESE 5.8 mph - N/A   Overcast
9:56 PM 42.8 °F 38.6 °F 37.4 °F 81% 30.08 in 10.0 mi ESE 6.9 mph - N/A   Overcast
10:16 PM 42.8 °F 38.6 °F 37.4 °F 81% 30.08 in 10.0 mi ESE 6.9 mph - N/A   Overcast
10:36 PM 42.8 °F 38.0 °F 37.4 °F 81% 30.07 in 10.0 mi ESE 8.1 mph - N/A   Overcast
10:56 PM 42.8 °F 38.6 °F 37.4 °F 81% 30.07 in 10.0 mi East 6.9 mph - N/A   Overcast
11:16 PM 42.8 °F 39.3 °F 37.4 °F 81% 30.07 in 10.0 mi East 5.8 mph - N/A   Overcast
11:36 PM 42.8 °F 39.3 °F 37.4 °F 81% 30.08 in 10.0 mi ESE 5.8 mph - N/A   Overcast
11:56 PM 42.8 °F 40.1 °F 37.4 °F 81% 30.09 in 10.0 mi East 4.6 mph - N/A   Overcast